#timestamp,LO_Frequency,Hit,StdDev 
1502175615.4,286047002.4,P,0.8
1502175635.3,286047002.6,P,0.8
1502175655.1,286046999.8,N,1.2
1502175675.9,286047001.0,N,1.1
1502175695.7,286047000.7,N,1.0
1502175715.5,286047000.3,N,1.0
1502175735.4,286046999.8,N,1.0
1502175755.2,286047000.5,N,1.0
1502175775.0,286047001.0,N,0.9
1502175775.9,286047001.0,N,0.9
1502175795.8,286047002.3,N,0.9
1502175815.6,286047000.2,N,0.9
1502175835.5,286047000.3,N,0.9
1502175855.3,286047000.0,N,0.9
1502175875.1,286047002.1,N,0.9
1502175895.9,286047001.4,N,0.9
1502175915.7,286047001.9,N,0.9
1502175935.6,286047004.4,Y,0.0
1502175955.4,286047000.1,P,0.5
1502175975.2,286047001.0,N,0.4
1502175995.1,286047000.2,N,0.4
1502175996.0,286047000.2,N,0.4
1502176015.8,286047001.7,Y,0.0
1502176035.7,286047002.5,P,1.0
1502176055.5,286047000.2,N,1.0
1502176075.3,286047000.9,N,0.9
1502176095.2,286047000.0,N,0.9
1502176115.0,286047002.4,N,1.0
1502176115.9,286047002.4,N,1.0
1502176135.8,286046999.7,N,1.1
1502176155.6,286047002.2,N,1.1
1502176175.4,286047002.6,N,1.1
1502176195.3,286046999.8,N,1.2
1502176215.1,286047001.9,N,1.1
1502176235.9,286047004.4,Y,0.0
1502176255.7,286047002.6,P,0.7
1502176275.5,286047002.8,P,0.7
1502176295.4,286047002.8,P,0.6
1502176315.2,286047000.2,N,1.0
1502176335.0,286047002.2,N,1.0
1502176335.9,286047002.2,N,0.9
1502176355.8,286046999.9,N,1.1
1502176375.6,286047002.7,N,1.1
1502176395.5,286046998.5,N,1.4
1502176415.3,286046998.2,N,1.7
1502176435.1,286047000.5,N,1.6
1502176455.9,286047001.1,N,1.5
1502176475.7,286047001.1,N,1.5
1502176495.6,286047000.7,N,1.4
1502176515.4,286047000.9,N,1.4
1502176535.2,286047000.4,N,1.4
1502176555.1,286047000.0,N,1.3
1502176556.0,286047000.0,N,1.3
1502176575.8,286047002.1,N,1.3
1502176595.7,286047001.1,N,1.3
1502176615.5,286047000.8,N,1.3
1502176635.3,286047002.4,N,1.3
1502176655.2,286046999.8,N,1.3
1502176675.0,286047001.4,N,1.2
1502176675.9,286047001.4,N,1.2
1502176695.8,286046999.8,N,1.2
1502176715.6,286046999.8,N,1.2
1502176735.4,286047000.0,N,1.2
1502176755.3,286047002.3,N,1.2
1502176775.1,286047000.3,N,1.2
1502176795.9,286047000.3,N,1.2
1502176815.7,286047002.8,N,1.2
1502176835.5,286047002.4,N,1.2
1502176855.4,286047002.0,N,1.2
1502176875.2,286047002.1,N,1.2
1502176895.0,286047004.3,Y,0.0
1502176896.0,286047004.3,P,1.7
1502176915.8,286047002.5,N,1.4
1502176935.6,286047001.3,N,1.3
1502176955.5,286047002.4,N,1.2
1502176975.3,286047000.3,N,1.3
1502176995.1,286047002.6,N,1.2
1502177015.9,286046999.8,N,1.4
1502177035.7,286046999.9,N,1.4
1502177055.6,286047000.4,N,1.4
1502177075.4,286046998.1,N,1.6
1502177095.2,286046998.4,N,1.7
1502177115.1,286047001.2,N,1.7
1502177116.0,286047001.2,N,1.6
1502177135.8,286046998.5,N,1.7
1502177155.7,286047001.1,N,1.6
1502177175.5,286047002.3,N,1.6
1502177195.3,286046998.2,N,1.7
1502177215.2,286046998.5,N,1.7
1502177235.0,286047000.9,N,1.7
1502177235.9,286047000.9,N,1.6
1502177255.8,286047000.5,N,1.6
1502177275.6,286047000.1,N,1.6
1502177295.4,286047000.0,N,1.5
1502177315.3,286047000.1,N,1.5
1502177335.1,286047002.8,N,1.5
1502177355.9,286047002.1,N,1.5
1502177375.7,286047000.0,N,1.5
1502177395.5,286046999.9,N,1.5
1502177415.4,286047002.4,N,1.5
1502177435.2,286047002.3,N,1.5
1502177455.1,286047001.9,N,1.4
1502177456.0,286047001.9,N,1.4
1502177475.8,286046999.9,N,1.4
1502177495.6,286047000.5,N,1.3
1502177515.5,286046998.2,N,1.4
1502177535.3,286047001.0,N,1.4
1502177555.2,286046999.7,N,1.4
1502177575.9,286047000.3,N,1.3
1502177595.7,286046999.7,N,1.4
1502177615.6,286047002.7,N,1.3
1502177635.4,286047002.7,N,1.3
1502177655.3,286047000.0,N,1.3
1502177675.1,286047000.9,N,1.3
1502177676.0,286047000.9,N,1.3
1502177695.8,286047001.2,N,1.3
1502177715.7,286047001.2,N,1.2
1502177735.5,286047002.8,N,1.2
1502177755.4,286047002.6,N,1.2
1502177775.2,286046999.7,N,1.2
1502177795.0,286047000.6,N,1.2
1502177795.9,286047000.6,N,1.2
1502177815.8,286047002.8,N,1.2
1502177835.6,286047002.8,N,1.2
1502177855.4,286046999.9,N,1.3
1502177875.3,286047000.5,N,1.2
1502177895.1,286046998.5,N,1.3
1502177915.9,286046998.2,N,1.4
1502177935.7,286046998.2,N,1.4
1502177955.5,286046998.5,N,1.5
1502177975.4,286047000.8,N,1.4
1502177995.2,286046998.7,N,1.5
1502178015.1,286046998.8,N,1.5
1502178016.0,286046998.8,N,1.5
1502178035.8,286046996.9,N,1.6
1502178055.6,286046997.4,N,1.7
1502178075.5,286046999.6,N,1.7
1502178095.3,286046997.3,N,1.7
1502178115.2,286046996.8,N,1.8
1502178135.0,286046997.1,N,1.9
1502178135.9,286046997.1,N,1.9
1502178155.8,286046995.3,N,2.0
1502178175.6,286046995.6,N,2.1
1502178195.4,286046995.2,N,2.2
1502178215.3,286046997.7,N,2.2
1502178235.1,286046997.7,N,2.2
1502178255.8,286046997.8,N,2.1
1502178275.7,286046996.9,N,2.0
1502178295.5,286046995.4,N,2.0
1502178315.4,286046995.2,N,2.0
1502178365.2,286046995.9,E,nan
1502178375.2,286046997.1,N,0.0
1502178395.9,286046998.7,P,0.8
1502178415.7,286046998.6,N,0.7
1502178435.6,286046998.4,N,0.6
1502178455.4,286046998.3,N,0.6
1502178475.2,286046998.5,N,0.5
1502178495.1,286046998.2,Y,0.0
1502178496.0,286046998.2,P,0.0
1502178515.8,286047000.0,N,0.8
1502178535.7,286047000.6,N,1.1
1502178555.5,286047000.4,N,1.0
1502178575.3,286047000.1,N,1.0
1502178595.2,286047000.4,N,1.0
1502178615.0,286047002.3,N,1.2
1502178615.9,286047002.3,N,1.4
1502178635.8,286047002.7,N,1.5
1502178655.6,286047002.4,N,1.5
1502178675.4,286047002.6,N,1.5
1502178695.3,286047001.9,N,1.5
1502178715.1,286047002.1,N,1.5
1502178735.9,286047002.6,N,1.5
1502178755.7,286047000.1,N,1.5
1502178775.5,286047000.6,N,1.4
1502178795.4,286046999.9,N,1.4
1502178815.2,286047002.7,N,1.4
1502178835.0,286046999.9,N,1.4
1502178836.0,286046999.9,N,1.4
1502178855.8,286046999.9,N,1.4
1502178875.6,286047001.0,N,1.3
1502178895.5,286047000.9,N,1.3
1502178915.3,286047000.5,N,1.3
1502178935.1,286047000.4,N,1.3
1502178955.9,286047002.7,N,1.3
1502178975.7,286047000.3,N,1.3
1502178995.6,286046999.8,N,1.3
1502179015.4,286047002.3,N,1.3
1502179035.2,286047002.1,N,1.2
1502179055.1,286046999.8,N,1.1
1502179056.0,286046999.8,N,1.1
1502179075.8,286047000.6,N,1.1
1502179095.7,286046999.8,N,1.1
1502179115.5,286046999.8,N,1.1
1502179135.3,286047000.3,N,1.1
1502179155.2,286047000.6,N,1.1
1502179175.0,286046998.7,N,1.2
1502179175.9,286046998.7,N,1.2
1502179195.8,286047000.5,N,1.1
